K8DJB-1 Weather Reports


Display with metric or nautical units.
time (UTC)temp
F
wind
direction
speed
MPH
gust
MPH
rain 1hr
in
rain 24hr
in
rain mn
in
humidity
%
barometer
mb
20260504081934 51 141 4.0 7.0 0.00 0.00 0.00 74 1002.8
20260504081434 51 146 4.0 7.0 0.00 0.00 0.00 73 1002.9
20260504080441 51 141 3.0 7.0 0.00 0.00 0.00 74 1002.9
20260504070246 51 140 4.0 7.0 0.00 0.00 0.00 73 1003.6
20260504050442 51 160 8.0 13.0 0.00 0.00 0.00 73 1005.0
20260504045943 51 168 7.0 12.0 0.00 0.00 0.00 73 1005.0
20260504045442 51 164 7.0 11.0 0.00 0.00 0.00 73 1005.1
20260504044943 51 166 7.0 12.0 0.00 0.00 0.00 73 1005.1
20260504044442 51 167 7.0 12.0 0.00 0.00 0.00 73 1005.1
20260504043942 51 170 7.0 12.0 0.00 0.00 0.00 73 1005.2
20260504043442 51 164 6.0 11.0 0.00 0.00 0.00 73 1005.2
20260504042442 50 159 6.0 11.0 0.00 0.00 0.00 73 1005.3
20260504041055 50 154 6.0 10.0 0.00 0.00 0.00 74 1005.4
20260504040553 50 160 6.0 10.0 0.00 0.00 0.00 73 1005.4
20260504040053 51 161 6.0 10.0 0.00 0.00 0.00 73 1005.5
20260504035553 51 152 6.0 10.0 0.00 0.00 0.00 73 1005.5
20260504035053 51 157 6.0 10.0 0.00 0.00 0.00 72 1005.5
20260504034553 51 162 6.0 10.0 0.00 0.00 0.00 72 1005.6
20260504034053 51 166 5.0 9.0 0.00 0.00 0.00 72 1005.6
20260504033553 51 163 6.0 11.0 0.00 0.00 0.00 72 1005.6
20260504033053 51 157 6.0 11.0 0.00 0.00 0.00 71 1005.6
20260504032553 51 152 7.0 11.0 0.00 0.00 0.00 71 1005.6
20260504032053 51 160 6.0 11.0 0.00 0.00 0.00 71 1005.7
20260504031553 51 157 5.0 10.0 0.00 0.00 0.00 71 1005.7
20260504031053 51 153 5.0 11.0 0.00 0.00 0.00 70 1005.8
20260504030553 51 147 6.0 11.0 0.00 0.00 0.00 70 1005.7
20260504030053 51 162 5.0 10.0 0.00 0.00 0.00 70 1005.7
20260504025553 52 156 6.0 11.0 0.00 0.00 0.00 70 1005.8
20260504025053 52 152 8.0 12.0 0.00 0.00 0.00 69 1005.8
20260504024553 52 151 8.0 16.0 0.00 0.00 0.00 69 1005.8
20260504024053 52 150 8.0 16.0 0.00 0.00 0.00 69 1005.9
20260504023553 52 151 7.0 14.0 0.00 0.00 0.00 69 1005.9
20260504023054 53 166 9.0 14.0 0.00 0.00 0.00 69 1006.0
20260504022553 53 166 7.0 14.0 0.00 0.00 0.00 69 1005.9
20260504022053 53 158 10.0 14.0 0.00 0.00 0.00 68 1005.9
20260504021553 53 161 9.0 14.0 0.00 0.00 0.00 69 1005.9
20260504021053 53 161 8.0 13.0 0.00 0.00 0.00 68 1005.8
20260504020553 53 165 9.0 16.0 0.00 0.00 0.00 68 1005.8
20260504020053 53 160 11.0 16.0 0.00 0.00 0.00 68 1005.8
20260504015553 53 154 7.0 19.0 0.00 0.00 0.00 68 1005.8
20260504015053 54 157 9.0 19.0 0.00 0.00 0.00 68 1005.7
20260504014553 54 162 11.0 16.0 0.00 0.00 0.00 67 1005.7
20260504014053 54 161 10.0 17.0 0.00 0.00 0.00 67 1005.6
20260504013553 54 156 12.0 17.0 0.00 0.00 0.00 67 1005.6
20260504013055 54 158 10.0 18.0 0.00 0.00 0.00 67 1005.6
20260504012053 54 156 10.0 17.0 0.00 0.00 0.00 66 1005.6
20260504011553 54 161 9.0 17.0 0.00 0.00 0.00 66 1005.7
20260504011053 55 166 13.0 17.0 0.00 0.00 0.00 66 1005.8
20260504010553 55 162 11.0 19.0 0.00 0.00 0.00 66 1005.7
20260504010053 55 166 13.0 19.0 0.00 0.00 0.00 65 1005.7
20260504005053 55 168 12.0 22.0 0.00 0.00 0.00 64 1005.8
20260504004553 55 165 13.0 20.0 0.00 0.00 0.00 64 1005.8
20260504004053 55 168 15.0 20.0 0.00 0.00 0.00 63 1005.8
20260504003553 56 170 11.0 20.0 0.00 0.00 0.00 63 1005.9
20260504003053 56 162 12.0 22.0 0.00 0.00 0.00 63 1005.9
20260504002553 56 169 16.0 23.0 0.00 0.00 0.00 62 1005.8
20260504002053 56 170 16.0 23.0 0.00 0.00 0.00 62 1005.8
20260504001553 56 168 12.0 28.0 0.00 0.00 0.00 62 1006.0
20260504001055 57 180 15.0 28.0 0.00 0.00 0.00 61 1006.1
20260504000553 57 166 12.0 27.0 0.00 0.00 0.00 61 1006.2
20260504000053 57 180 17.0 27.0 0.00 0.00 0.00 60 1006.2
20260503235134 57 175 17.0 26.0 0.00 0.00 0.00 60 1006.1
20260503234636 57 169 16.0 24.0 0.00 0.00 0.00 60 1006.2
20260503234134 57 169 15.0 24.0 0.00 0.00 0.00 60 1006.2
20260503233635 57 171 17.0 23.0 0.00 0.00 0.00 60 1006.3
20260503233134 57 169 14.0 26.0 0.00 0.00 0.00 61 1006.3
20260503232634 57 164 14.0 26.0 0.00 0.00 0.00 60 1006.4
20260503232134 57 175 14.0 26.0 0.00 0.00 0.00 60 1006.5
20260503231634 56 182 13.0 27.0 0.00 0.00 0.00 60 1006.6
20260503231134 56 166 16.0 27.0 0.00 0.00 0.00 61 1006.6
20260503230543 56 165 13.0 24.0 0.00 0.00 0.00 60 1006.8
20260503230000 56 167 16.0 22.0 0.00 0.00 0.00 60 1006.9
20260503225248 56 171 14.0 24.0 0.00 0.00 0.00 61 1006.9
20260503224748 56 167 14.0 29.0 0.00 0.00 0.00 61 1007.0
20260503224248 56 177 15.0 29.0 0.00 0.00 0.00 60 1007.2
20260503223748 56 168 19.0 30.0 0.00 0.00 0.00 60 1007.3
20260503223248 56 174 21.0 30.0 0.00 0.00 0.00 60 1007.4
20260503222748 56 173 16.0 24.0 0.00 0.00 0.00 60 1007.4
20260503222248 56 174 14.0 26.0 0.00 0.00 0.00 61 1007.6
20260503221748 56 173 16.0 26.0 0.00 0.00 0.00 61 1007.6
20260503221248 56 171 16.0 26.0 0.00 0.00 0.00 61 1007.7
20260503220748 56 161 20.0 29.0 0.00 0.00 0.00 60 1007.7
20260503220248 56 171 18.0 29.0 0.00 0.00 0.00 61 1007.8
20260503215748 56 163 16.0 30.0 0.00 0.00 0.00 61 1007.9
20260503215248 55 177 16.0 35.0 0.00 0.00 0.00 62 1007.8
20260503214748 55 166 18.0 35.0 0.00 0.00 0.00 62 1007.9
20260503214248 55 164 20.0 32.0 0.00 0.00 0.00 61 1007.9
20260503213748 55 162 18.0 24.0 0.00 0.00 0.00 62 1007.9
20260503213248 55 174 16.0 28.0 0.00 0.00 0.00 62 1007.9
20260503212748 55 173 18.0 28.0 0.00 0.00 0.00 62 1007.9
20260503212248 55 179 12.0 25.0 0.00 0.00 0.00 63 1008.0
20260503211748 55 170 15.0 27.0 0.00 0.00 0.00 62 1008.0
20260503211248 55 175 19.0 27.0 0.00 0.00 0.00 62 1008.0
20260503210748 55 177 13.0 23.0 0.00 0.00 0.00 63 1008.0
20260503210248 55 181 15.0 23.0 0.00 0.00 0.00 63 1008.0
20260503205748 55 171 13.0 20.0 0.00 0.00 0.00 63 1008.0
20260503205248 55 173 11.0 23.0 0.00 0.00 0.00 64 1008.1
20260503204748 55 189 16.0 23.0 0.00 0.00 0.00 63 1008.3
20260503204248 55 175 16.0 24.0 0.00 0.00 0.00 63 1008.4
20260503203748 54 182 14.0 24.0 0.00 0.00 0.00 63 1008.4
20260503203248 54 180 16.0 24.0 0.00 0.00 0.00 64 1008.6
20260503202748 54 179 14.0 20.0 0.00 0.00 0.00 65 1008.7
20260503202248 54 187 13.0 19.0 0.00 0.00 0.00 65 1008.8
20260503201748 54 193 11.0 19.0 0.00 0.00 0.00 66 1008.9
20260503201248 54 192 13.0 22.0 0.00 0.00 0.00 66 1009.0
20260503200748 54 207 16.0 22.0 0.00 0.00 0.00 65 1009.2
20260503200248 54 201 12.0 21.0 0.00 0.00 0.00 64 1009.4
20260503195748 54 206 12.0 21.0 0.00 0.00 0.00 63 1009.5
20260503195248 54 219 15.0 25.0 0.00 0.00 0.00 62 1009.7
20260503194748 55 223 17.0 26.0 0.00 0.00 0.00 62 1009.7
20260503194248 55 226 15.0 30.0 0.00 0.00 0.00 62 1009.7
20260503193748 56 218 18.0 30.0 0.00 0.00 0.00 59 1009.7
20260503193248 56 205 19.0 29.0 0.00 0.00 0.00 58 1009.6
20260503192748 57 222 19.0 30.0 0.00 0.00 0.00 57 1009.9
20260503192248 58 227 19.0 33.0 0.00 0.00 0.00 57 1009.9
20260503191748 58 215 20.0 33.0 0.00 0.00 0.00 54 1009.7
20260503191248 58 225 19.0 32.0 0.00 0.00 0.00 54 1009.8
20260503190748 58 224 22.0 35.0 0.00 0.00 0.00 54 1009.9
20260503190248 58 239 20.0 35.0 0.00 0.00 0.00 55 1009.8
20260503185748 59 230 21.0 35.0 0.00 0.00 0.00 54 1010.0
20260503185248 59 222 25.0 35.0 0.00 0.00 0.00 52 1010.0
20260503184748 59 224 20.0 35.0 0.00 0.00 0.00 52 1010.1
20260503184248 60 217 18.0 35.0 0.00 0.00 0.00 52 1010.0
20260503183731 60 216 20.0 32.0 0.00 0.00 0.00 52 1010.0
20260503183138 60 206 23.0 34.0 0.00 0.00 0.00 52 1009.9
20260503182340 60 228 22.0 33.0 0.00 0.00 0.00 51 1010.0
20260503181839 60 212 25.0 33.0 0.00 0.00 0.00 50 1010.0
20260503181339 60 218 22.0 36.0 0.00 0.00 0.00 51 1010.1
20260503180839 59 234 24.0 36.0 0.00 0.00 0.00 50 1010.2
20260503180339 60 229 20.0 32.0 0.00 0.00 0.00 52 1010.1
20260503175839 60 227 20.0 35.0 0.00 0.00 0.00 50 1010.3
20260503175339 59 233 24.0 35.0 0.00 0.00 0.00 51 1010.2
20260503174839 60 222 20.0 35.0 0.00 0.00 0.00 49 1010.1
20260503174339 60 227 21.0 33.0 0.00 0.00 0.00 50 1010.3
20260503173839 60 243 17.0 34.0 0.00 0.00 0.00 49 1010.3
20260503173339 59 210 22.0 34.0 0.00 0.00 0.00 50 1010.3
20260503172839 59 207 23.0 32.0 0.00 0.00 0.00 49 1010.4
20260503172339 59 226 24.0 31.0 0.00 0.00 0.00 49 1010.6
20260503171839 60 239 20.0 29.0 0.00 0.00 0.00 50 1010.6
20260503171339 59 231 20.0 29.0 0.00 0.00 0.00 51 1010.7
20260503170456 59 233 17.0 26.0 0.00 0.00 0.00 53 1010.5
20260503150809 56 214 14.0 30.0 0.00 0.00 0.00 50 1011.3
20260503150309 56 222 19.0 30.0 0.00 0.00 0.00 48 1011.3
20260503140309 53 206 16.0 25.0 0.00 0.00 0.00 51 1011.9
20260503131141 52 217 12.0 21.0 0.00 0.00 0.00 55 1012.1
20260503130641 52 212 14.0 21.0 0.00 0.00 0.00 55 1012.1
20260503130141 51 215 15.0 21.0 0.00 0.00 0.00 55 1012.1
20260503120141 46 155 5.0 8.0 0.00 0.00 0.00 67 1012.0
20260503110641 44 172 6.0 9.0 0.00 0.00 0.00 67 1011.9
20260503110141 44 164 6.0 9.0 0.00 0.00 0.00 67 1011.8
20260503100141 43 191 5.0 8.0 0.00 0.00 0.00 67 1011.9